Flag for Germany Weather past 2 weeks in Bietigheim-Bissingen, Baden-Württemberg, Germany

Now
77 °F

Scattered clouds.


Feels Like: 79 °F
Forecast: 57 / 83 °F
Wind: 2 mph from Southeast

Location: Stuttgart-Echterdingen

Current Time: Jul 25, 2014 at 6:14:06 PM

Latest Report: Jul 25, 2014 at 5:00 PM


Visibility: 25 mi

Pressure: 29.83 "Hg

Humidity: 55%

Dew point: 60 °F

Location of Bietigheim-BissingenLocation

Historic Weather in Bietigheim-Bissingen — Graph

°F

Bietigheim-Bissingen temperature yesterday

Maximum temperature yesterday: 79 °F (at 6:00 PM)
Minimum temperature yesterday: 59 °F (at 6:00 AM)
Average temperature yesterday: 70 °F

Past Weeks' High & Low Weather Summary

 TemperatureHumidityPressure
High91 °F (Jul 19, 4:00 PM)100% (Jul 23, 6:00 AM)30.20 "Hg (Jul 23, 6:00 AM)
Low56 °F (Jul 16, 6:00 AM)25% (Jul 18, 3:00 PM)29.78 "Hg (Jul 13, 6:00 PM)
Average69 °F71%29.96 "Hg
* Reported Jul 10 5:00 PM — Jul 25 5:00 PM, Bietigheim-Bissingen, Weather by CustomWeather, © 2014

Note: Actual official high and low records may vary slightly from our data, if they occured in-between our weather recording intervals... More about our weather records

Advertising

Bietigheim-Bissingen weather history for previous 24 hours

 ConditionsComfort  
Time TempWeatherWind HumidityBarometerVisibility
5:00 PM
Jul 25
77 °FScattered clouds.2 mph55%29.83 "Hg25 mi
4:00 PM76 °FPassing clouds.2 mph52%29.85 "Hg25 mi
3:00 PM72 °FThunderstorms. Scattered clouds.No wind72%29.87 "Hg25 mi
2:00 PM66 °FThundershowers. Overcast.9 mph86%29.90 "Hg6 mi
1:00 PM76 °FScattered clouds.1 mph53%29.88 "Hg19 mi
12:00 PM74 °FPassing clouds.1 mph54%29.89 "Hg16 mi
11:00 AM71 °FPassing clouds.1 mph63%29.91 "Hg16 mi
10:00 AM67 °FPassing clouds.1 mph73%29.92 "Hg16 mi
9:00 AM64 °FPassing clouds.1 mph79%29.93 "Hg12 mi
8:00 AM63 °FPassing clouds.1 mph81%29.93 "Hg14 mi
7:00 AM62 °FScattered clouds.No wind85%29.92 "Hg16 mi
6:00 AM60 °FPartly sunny.1 mph86%29.93 "Hg19 mi
4:00 AM60 °FPassing clouds.2 mph85%29.91 "Hg31 mi
3:00 AM61 °FClear.No wind81%29.91 "Hg37 mi
2:00 AM63 °FClear.1 mph77%29.91 "Hg31 mi
1:00 AM65 °FPassing clouds.No wind70%29.90 "Hg31 mi
12:00 AM67 °FPassing clouds.No wind66%29.90 "Hg37 mi
10:00 PM
Jul 24
70 °FPassing clouds.3 mph55%29.88 "Hg37 mi
9:00 PM74 °FPassing clouds.2 mph47%29.85 "Hg37 mi
8:00 PM77 °FPassing clouds.2 mph34%29.83 "Hg37 mi
7:00 PM78 °FPassing clouds.2 mph38%29.83 "Hg37 mi
6:00 PM79 °FPassing clouds.1 mph31%29.83 "Hg37 mi
Weather by CustomWeather, © 2014

See weather overviewHow to use our weather pages